M.P.E.C. 2019-F02 Issued 2019 Mar. 16, 22:33 UT The Minor Planet Electronic Circulars contain information on unusual minor planets and routine data on comets. They are published on behalf of Division F of the International Astronomical Union by the Minor Planet Center, Smithsonian Astrophysical Observatory, Cambridge, MA 02138, U.S.A. Prepared using the Tamkin Foundation Computer Network MPC@CFA.HARVARD.EDU URL https://www.minorplanetcenter.net/ ISSN 1523-6714 2009 ME10 Revision to MPEC 2010-N33 Additional Observations: K09M10E KC2010 05 14.61197 20 30 09.954-29 54 46.89 22.0 GVEF002F51 K09M10E KC2010 05 27.53973 20 29 41.506-30 00 34.79 20.8 GVEF002F51 K09M10E KC2011 07 21.50366 20 39 01.514-28 52 51.47 21.7 GVEF002F51 K09M10E C2011 08 01.38767 20 37 21.320-28 57 26.09 21.7 GVEF002F51 K09M10E C2011 08 01.38887 20 37 21.301-28 57 26.00 21.6 GVEF002F51 K09M10E C2011 08 01.39737 20 37 21.218-28 57 26.20 21.7 GVEF002F51 K09M10E C2011 08 01.39857 20 37 21.202-28 57 26.23 21.6 GVEF002F51 K09M10E C2011 08 01.40835 20 37 21.117-28 57 26.58 21.0 GVEF002F51 K09M10E C2011 08 01.41980 20 37 21.000-28 57 26.51 22.4 GVEF002F51 K09M10E KC2011 08 15.39124 20 35 14.084-29 01 40.95 21.2 GVEF002F51 K09M10E KC2011 11 10.21768 20 31 03.320-28 33 47.82 21.6 GVEF002F51 K09M10E C2012 06 16.54119 20 58 40.511-26 50 43.75 21.9 GVEF002F51 K09M10E C2012 06 16.55512 20 58 40.430-26 50 44.04 21.7 GVEF002F51 K09M10E C2012 06 16.56904 20 58 40.353-26 50 44.60 21.9 GVEF002F51 K09M10E C2012 06 16.58292 20 58 40.268-26 50 44.93 21.6 GVEF002F51 K09M10E C2012 07 28.43165 20 53 19.828-27 13 20.81 21.4 GVEF002F51 K09M10E C2012 07 28.44259 20 53 19.721-27 13 20.86 21.3 GVEF002F51 K09M10E C2012 08 12.40994 20 51 03.648-27 19 25.61 22.3 GVEF002F51 K09M10E C2012 09 05.31883 20 47 47.244-27 24 10.24 21.8 GVEF002F51 K09M10E C2012 11 02.21896 20 45 20.147-27 04 18.74 21.6 GVEF002F51 K09M10E C2012 11 02.22511 20 45 20.165-27 04 18.26 21.7 GVEF002F51 K09M10E C2012 11 02.23131 20 45 20.195-27 04 18.15 21.8 GVEF002F51 K09M10E C2012 11 02.23751 20 45 20.206-27 04 17.84 21.7 GVEF002F51 K09M10E C2013 07 13.46756 21 10 38.181-25 14 43.82 21.7 GVEF002F51 K09M10E C2013 07 13.48465 21 10 38.040-25 14 44.47 21.9 GVEF002F51 K09M10E C2013 07 13.50105 21 10 37.908-25 14 45.05 21.3 GVEF002F51 K09M10E C2013 07 13.51564 21 10 37.785-25 14 45.57 22.0 GVEF002F51 K09M10E C2013 08 23.40164 21 04 40.739-25 34 04.30 21.5 GVEF002F51 K09M10E C2013 08 24.40219 21 04 32.222-25 34 22.11 21.4 GVEF002F51 K09M10E C2013 08 24.41275 21 04 32.178-25 34 22.09 21.8 GVEF002F51 K09M10E C2013 09 01.40202 21 03 26.836-25 36 19.97 21.7 GVEF002F51 K09M10E C2013 09 01.41165 21 03 26.744-25 36 20.13 21.9 GVEF002F51 K09M10E C2013 09 21.32734 21 01 12.276-25 37 36.45 21.9 GVEF002F51 K09M10E C2013 09 21.33791 21 01 12.189-25 37 36.24 21.6 GVEF002F51 K09M10E KC2013 10 20.22370 20 59 43.164-25 29 32.06 21.4 GVEF002F51 K09M10E KC2014 06 11.57677 21 28 20.623-23 00 38.45 21.7 GVEF002F51 K09M10E C2014 07 25.47778 21 23 48.539-23 24 15.03 21.8 GVEF002F51 K09M10E C2014 07 25.48903 21 23 48.443-23 24 15.51 21.8 GVEF002F51 K09M10E C2014 07 25.50029 21 23 48.344-23 24 15.85 21.6 GVEF002F51 K09M10E C2014 07 25.51153 21 23 48.248-23 24 16.22 21.8 GVEF002F51 K09M10E C2014 08 15.40323 21 20 45.232-23 35 16.47 22.1 GVEF002F51 K09M10E C2014 08 15.41514 21 20 45.129-23 35 16.66 21.3 GVEF002F51 K09M10E C2014 08 15.42703 21 20 45.026-23 35 17.13 21.4 GVEF002F51 K09M10E C2014 08 15.43892 21 20 44.907-23 35 17.40 21.5 GVEF002F51 K09M10E KC2014 09 13.33627 21 16 49.866-23 44 17.31 21.6 GVEF002F51 K09M10E C2015 06 29.53994 21 41 16.341-21 06 20.69 21.7 GVEF002F51 K09M10E C2015 06 29.55095 21 41 16.273-21 06 20.71 21.5 GVEF002F51 K09M10E C2015 06 29.56197 21 41 16.248-21 06 20.98 21.8 GVEF002F51 K09M10E C2015 06 29.57296 21 41 16.162-21 06 21.44 21.6 GVEF002F51 K09M10E C2015 06 30.54650 21 41 10.945-21 06 51.26 21.6 GVEF002F51 K09M10E C2015 07 18.50852 21 39 13.870-21 16 55.68 21.6 GVEF002F51 K09M10E C2015 07 18.50916 21 39 13.854-21 16 56.01 21.8 GVEF002F51 K09M10E C2015 07 18.51971 21 39 13.799-21 16 55.89 21.4 GVEF002F51 K09M10E C2015 07 18.52035 21 39 13.804-21 16 55.96 21.6 GVEF002F51 K09M10E C2015 07 18.53092 21 39 13.701-21 16 56.19 21.8 GVEF002F51 K09M10E C2015 07 18.53156 21 39 13.695-21 16 56.60 21.6 GVEF002F51 K09M10E C2015 07 18.54211 21 39 13.630-21 16 56.82 21.8 GVEF002F51 K09M10E C2015 07 18.54276 21 39 13.622-21 16 57.22 21.3 GVEF002F51 K09M10E C2015 07 25.41971 21 38 20.150-21 21 02.23 22.1 GVEF002F51 K09M10E C2015 07 25.43070 21 38 20.085-21 21 02.41 21.5 GVEF002F51 K09M10E C2015 07 25.44232 21 38 19.964-21 21 03.01 21.5 GVEF002F51 K09M10E C2015 07 25.45330 21 38 19.874-21 21 03.34 21.3 GVEF002F51 K09M10E C2015 08 10.42365 21 36 04.822-21 30 18.18 21.7 GVEF002F51 K09M10E C2015 08 10.43466 21 36 04.723-21 30 18.52 21.5 GVEF002F51 K09M10E C2015 08 10.44568 21 36 04.632-21 30 18.96 21.7 GVEF002F51 K09M10E C2015 08 10.45671 21 36 04.522-21 30 19.42 21.4 GVEF002F51 K09M10E C2015 08 11.42505 21 35 56.065-21 30 51.09 21.9 GVEF002F51 K09M10E C2015 08 11.42635 21 35 56.044-21 30 51.31 21.5 GVEF002F51 K09M10E C2015 08 11.43644 21 35 55.962-21 30 51.49 21.6 GVEF002F51 K09M10E C2015 08 11.43773 21 35 55.966-21 30 51.61 21.6 GVEF002F51 K09M10E C2015 08 11.44782 21 35 55.852-21 30 51.83 21.8 GVEF002F51 K09M10E C2015 08 11.44912 21 35 55.858-21 30 51.91 22.0 GVEF002F51 K09M10E C2015 08 11.45926 21 35 55.755-21 30 52.21 21.4 GVEF002F51 K09M10E C2015 08 11.46055 21 35 55.753-21 30 52.13 21.8 GVEF002F51 K09M10E .C2015 09 05.03633 21 32 25.786-21 41 58.19 21.5 rcEF002807 K09M10E .C2015 09 05.11164 21 32 25.163-21 41 59.70 cEF002807 K09M10E .C2015 09 05.18720 21 32 24.558-21 42 01.24 cEF002807 K09M10E C2015 09 06.33613 21 32 15.460-21 42 24.42 21.7 GVEF002F51 K09M10E C2015 09 06.34712 21 32 15.371-21 42 24.69 21.7 GVEF002F51 K09M10E C2015 09 06.35812 21 32 15.291-21 42 24.85 21.7 GVEF002F51 K09M10E C2015 09 06.36910 21 32 15.194-21 42 25.03 21.7 GVEF002F51 K09M10E C2015 09 08.42394 21 31 59.141-21 43 03.11 21.6 GVEF002F51 K09M10E C2015 09 08.43506 21 31 59.055-21 43 03.28 21.9 GVEF002F51 K09M10E C2015 09 08.45808 21 31 58.876-21 43 03.58 21.7 GVEF002F51 K09M10E C2015 10 02.28604 21 29 25.789-21 46 21.41 21.7 GVEF002F51 K09M10E C2015 10 02.29741 21 29 25.703-21 46 20.99 21.3 GVEF002F51 K09M10E C2015 10 02.30884 21 29 25.654-21 46 21.22 21.4 GVEF002F51 K09M10E C2015 10 02.32025 21 29 25.590-21 46 21.34 21.5 GVEF002F51 K09M10E C2015 10 03.27030 21 29 21.034-21 46 18.95 21.5 GVEF002F51 K09M10E C2015 10 03.28128 21 29 20.981-21 46 19.11 21.8 GVEF002F51 K09M10E C2015 10 03.29226 21 29 20.927-21 46 19.02 21.9 GVEF002F51 K09M10E C2015 10 03.30323 21 29 20.874-21 46 18.94 21.9 GVEF002F51 K09M10E C2016 07 05.52288 21 54 38.722-19 01 55.78 21.8 GVEF002F51 K09M10E C2016 07 05.53316 21 54 38.694-19 01 54.99 21.8 GVEF002F51 K09M10E C2016 07 05.54346 21 54 38.631-19 01 55.36 21.8 GVEF002F51 K09M10E C2016 07 05.55375 21 54 38.566-19 01 55.61 22.0 GVEF002F51 K09M10E C2016 07 08.52151 21 54 21.289-19 03 29.43 21.4 GVEF002F51 K09M10E C2016 07 08.53159 21 54 21.226-19 03 29.68 21.7 GVEF002F51 K09M10E C2016 07 08.54167 21 54 21.173-19 03 29.98 21.5 GVEF002F51 K09M10E C2016 07 08.55173 21 54 21.110-19 03 30.44 21.5 GVEF002F51 K09M10E C2016 08 01.41454 21 51 28.592-19 17 27.35 21.5 GVEF002F51 K09M10E C2016 08 01.42426 21 51 28.502-19 17 27.75 21.6 GVEF002F51 K09M10E C2016 08 01.43399 21 51 28.424-19 17 27.94 21.6 GVEF002F51 K09M10E C2016 08 01.44370 21 51 28.339-19 17 28.40 21.7 GVEF002F51 K09M10E C2016 08 08.46048 21 50 29.667-19 21 41.13 21.5 GVEF002F51 K09M10E C2016 08 08.47117 21 50 29.573-19 21 41.48 21.5 GVEF002F51 K09M10E C2016 08 08.48188 21 50 29.484-19 21 41.89 21.7 GVEF002F51 K09M10E C2016 08 08.49261 21 50 29.389-19 21 42.21 21.6 GVEF002F51 K09M10E C2016 09 08.39400 21 46 08.264-19 37 15.27 21.9 GVEF002F51 K09M10E C2016 09 08.40504 21 46 08.196-19 37 15.15 21.4 GVEF002F51 K09M10E C2016 09 08.41610 21 46 08.101-19 37 15.53 21.6 GVEF002F51 K09M10E C2016 09 08.42715 21 46 08.017-19 37 15.78 21.6 GVEF002F51 K09M10E KC2016 10 28.21260 21 42 06.168-19 38 57.87 23.1 GVEF002F51 K09M10E KC2017 07 28.49891 22 05 54.971-17 02 12.89 21.5 GVEF002F51 K09M10E C2017 08 01.47475 22 05 24.325-17 04 38.25 21.6 GVEF002F51 K09M10E C2017 08 01.48611 22 05 24.236-17 04 38.67 21.5 GVEF002F51 K09M10E C2017 08 01.49743 22 05 24.144-17 04 39.02 21.5 GVEF002F51 K09M10E C2017 08 01.50877 22 05 24.041-17 04 39.34 21.4 GVEF002F51 K09M10E C2017 08 19.43276 22 02 55.669-17 15 34.36 21.7 GVEF002F51 K09M10E C2017 08 30.33120 22 01 22.922-17 21 41.00 20.6 GVEF002F51 K09M10E C2017 08 30.34247 22 01 22.855-17 21 41.48 21.1 GVEF002F51 K09M10E C2017 09 15.32638 21 59 14.497-17 29 00.92 21.7 GVEF002F51 K09M10E C2017 09 15.33739 21 59 14.416-17 29 01.35 21.8 GVEF002F51 K09M10E C2017 09 15.35940 21 59 14.249-17 29 01.73 21.9 GVEF002F51 K09M10E C2017 09 16.36164 21 59 06.760-17 29 24.12 21.6 GVEF002F51 K09M10E C2017 09 16.37353 21 59 06.672-17 29 24.43 21.7 GVEF002F51 K09M10E C2017 09 16.38539 21 59 06.583-17 29 24.70 21.7 GVEF002F51 K09M10E C2017 11 02.28581 21 55 37.943-17 31 21.31 22.0 GVEF002F51 K09M10E C2017 11 02.29722 21 55 37.942-17 31 21.13 22.1 GVEF002F51 K09M10E C2017 11 02.32000 21 55 37.906-17 31 20.70 21.5 GVEF002F51 K09M10E C2018 08 08.44794 22 18 09.461-14 52 18.46 21.4 GVEF002F51 K09M10E C2018 08 08.45922 22 18 09.372-14 52 18.96 21.6 GVEF002F51 K09M10E C2018 08 08.47047 22 18 09.281-14 52 19.39 21.5 GVEF002F51 K09M10E C2018 08 08.48174 22 18 09.187-14 52 19.79 21.4 GVEF002F51 K09M10E C2018 08 17.39742 22 16 56.434-14 57 54.48 21.7 GVEF002F51 K09M10E C2018 08 17.40843 22 16 56.333-14 57 54.69 21.6 GVEF002F51 K09M10E C2018 08 17.41946 22 16 56.240-14 57 55.38 21.5 GVEF002F51 K09M10E C2018 08 17.43089 22 16 56.140-14 57 55.60 22.0 GVEF002F51 Observer details: 807 Cerro Tololo Observatory, La Serena. Observers S. S. Sheppard, C. Trujillo. 4.0-m CTIO reflector + CCD. F51 Pan-STARRS 1, Haleakala. Observers J. Bulger, K. Chambers, B. Gibson, T. Goggia, T. Lowe, E. Magnier, N. Primak, A. Schultz, J. Thiel, S. Watters, M. Willman. Measurers S. Chastel, M. Huber, R. Jedicke, R. Wainscoat, R. Weryk. 1.8-m Ritchey-Chretien + CCD. Orbital elements: 2009 ME10 Epoch 2019 Apr. 27.0 TT = JDT 2458600.5 MPC M 359.80277 (2000.0) P Q n 0.00626357 Peri. 347.54774 +0.89210359 +0.44736859 a 29.1466234 Node 345.37114 -0.39005396 +0.69176250 e 0.2377472 Incl. 14.52564 -0.22805504 +0.56685623 P 157.36 H 8.4 G 0.15 U 0 Residuals in seconds of arc 090627 807 0.6+ 1.1- 140815 F51 0.0 0.0 151003 F51 0.0 0.0 090627 807 (0.6+ 1.5-) 140815 F51 0.1+ 0.1- 151003 F51 0.0 0.1+ 090627 807 0.6+ 1.3- 140815 F51 0.1- 0.0 160705 F51 0.4- 1.1- 090718 I11 0.2- 0.1+ 140913 F51 0.1+ 0.1- 160705 F51 0.1+ 0.0 090718 I11 0.2- 0.1+ 150629 F51 0.0 0.3- 160705 F51 0.0 0.0 090718 I11 0.2- 0.1- 150629 F51 0.1- 0.0 160705 F51 0.0 0.0 090824 304 0.2+ 0.1- 150629 F51 0.4+ 0.1+ 160708 F51 0.1- 0.0 090825 304 0.1+ 0.1- 150629 F51 0.0 0.0 160708 F51 0.1- 0.0 100514 F51 0.4+ 0.2- 150630 F51 0.1- 0.1+ 160708 F51 0.0 0.1+ 100527 F51 0.1- 0.2+ 150718 F51 0.1- 0.1+ 160708 F51 0.0 0.1- 110721 F51 0.1- 0.1- 150718 F51 0.3- 0.2- 160801 F51 0.1+ 0.0 110801 F51 0.1+ 0.0 150718 F51 0.1+ 0.2+ 160801 F51 0.1- 0.1- 110801 F51 0.0 0.1+ 150718 F51 0.2+ 0.2+ 160801 F51 0.0 0.1+ 110801 F51 0.1- 0.1+ 150718 F51 0.1- 0.3+ 160801 F51 0.1- 0.0 110801 F51 0.1- 0.1+ 150718 F51 0.1- 0.0 160808 F51 0.0 0.0 110801 F51 0.0 0.1- 150718 F51 0.1+ 0.1+ 160808 F51 0.0 0.0 110801 F51 0.2- 0.3+ 150718 F51 0.1+ 0.3- 160808 F51 0.0 0.0 110815 F51 0.0 0.1+ 150725 F51 0.0 0.0 160808 F51 0.0 0.0 111110 F51 0.1+ 0.3- 150725 F51 0.3+ 0.2+ 160908 F51 0.2- 0.2- 120616 F51 0.0 0.1- 150725 F51 0.0 0.0 160908 F51 0.1+ 0.1+ 120616 F51 0.0 0.0 150725 F51 0.0 0.1+ 160908 F51 0.0 0.0 120616 F51 0.0 0.1- 150810 F51 0.0 0.0 160908 F51 0.0 0.0 120616 F51 0.1- 0.0 150810 F51 0.0 0.0 161028 F51 0.3+ 0.1+ 120728 F51 0.2+ 0.1- 150810 F51 0.1+ 0.1- 170728 F51 0.0 0.1+ 120728 F51 0.2+ 0.1+ 150810 F51 0.1- 0.2- 170801 F51 0.0 0.0 120812 F51 0.1- 0.2+ 150811 F51 0.0 0.0 170801 F51 0.0 0.0 120905 F51 0.6- 0.3+ 150811 F51 0.1- 0.2- 170801 F51 0.0 0.0 121102 F51 0.1- 0.1- 150811 F51 0.0 0.0 170801 F51 0.1- 0.1+ 121102 F51 0.1- 0.1+ 150811 F51 0.2+ 0.1- 170819 F51 0.0 0.1+ 121102 F51 0.1+ 0.1- 150811 F51 0.1- 0.0 170830 F51 0.2- 0.3+ 121102 F51 0.0 0.0 150811 F51 0.1+ 0.0 170830 F51 0.3+ 0.2+ 130713 F51 0.0 0.1+ 150811 F51 0.0 0.0 170915 F51 0.0 0.1+ 130713 F51 0.0 0.0 150811 F51 0.1+ 0.1+ 170915 F51 0.0 0.1- 130713 F51 0.0 0.0 150905 807 0.1- 0.3+ 170915 F51 0.0 0.0 130713 F51 0.0 0.0 150905 807 0.2- 0.4+ 170916 F51 0.0 0.1+ 130823 F51 0.2- 0.0 150905 807 0.1- 0.3+ 170916 F51 0.0 0.0 130824 F51 0.5- 0.1+ 150906 F51 0.0 0.0 170916 F51 0.0 0.0 130824 F51 0.2+ 0.3+ 150906 F51 0.0 0.0 171102 F51 0.1- 0.0 130901 F51 0.0 0.1+ 150906 F51 0.1+ 0.0 171102 F51 0.0 0.0 130901 F51 0.2- 0.0 150906 F51 0.0 0.0 171102 F51 0.2- 0.1- 130921 F51 0.3+ 0.1+ 150908 F51 0.0 0.1- 180808 F51 0.0 0.0 130921 F51 0.1- 0.3+ 150908 F51 0.0 0.1- 180808 F51 0.0 0.1- 131020 F51 0.2+ 0.0 150908 F51 0.0 0.0 180808 F51 0.0 0.1- 140611 F51 0.3+ 0.0 151002 F51 0.3+ 0.2- 180808 F51 0.0 0.1- 140725 F51 0.0 0.0 151002 F51 0.1- 0.2+ 180817 F51 0.1+ 0.1- 140725 F51 0.0 0.1- 151002 F51 0.1+ 0.0 180817 F51 0.0 0.1+ 140725 F51 0.0 0.0 151002 F51 0.0 0.1- 180817 F51 0.0 0.1- 140725 F51 0.0 0.0 151003 F51 0.0 0.1+ 180817 F51 0.0 0.1+ 140815 F51 0.1- 0.1- 151003 F51 0.0 0.1- Ephemeris: 2009 ME10 a,e,i = 29.15, 0.24, 15 q = 22.217 Date TT R. A. (2000) Decl. Delta r Elong. Phase V 2019 02 14 22 20 27.9 -13 47 45 23.1955 22.2179 7.9 0.3 22.0 ... 2019 03 01 22 23 25.9 -13 28 31 23.1988 22.2176 7.8 0.3 22.0 ... 2019 03 09 22 24 59.9 -13 18 32 23.1747 22.2176 15.1 0.7 22.1 ... 2019 03 15 22 26 08.8 -13 11 16 23.1451 22.2175 20.6 0.9 22.1 2019 03 16 22 26 20.1 -13 10 05 23.1393 22.2175 21.6 0.9 22.1 2019 03 17 22 26 31.4 -13 08 54 23.1332 22.2175 22.5 1.0 22.1 ... 2019 03 23 22 27 37.7 -13 01 58 23.0911 22.2174 28.1 1.2 22.1 ... 2019 03 31 22 29 02.1 -12 53 12 23.0214 22.2173 35.6 1.5 22.1 ... 2019 04 15 22 31 24.4 -12 38 33 22.8525 22.2172 49.7 2.0 22.2 A. U. Tomatic (C) Copyright 2019 MPC M.P.E.C. 2019-F02
